Location: Hertford
(51.8000°N, 0.0667°W)
Time: 13:06:42
(UTC+00:00)

Cosmos 2082 Rocket - Pass Details

Date: 18 September 2020
Orbit: 834 x 852 km, 71.0° (Epoch: 21 October)

Event Time Altitude Azimuth Distance (km) Brightness Sun altitude
Rises 18:52:54 0° 325° (NW) 3,394 6.2 -7.9°
Reaches altitude 10° 18:56:41 10° 350° (N) 2,457 4.9 -8.4°
Maximum altitude 18:59:35 14° 21° (NNE) 2,180 4.3 -8.9°
Drops below altitude 10° 19:02:28 10° 53° (NE) 2,455 4.3 -9.3°
Enters shadow 19:04:23 - 68° (ENE) 2,880 4.5 -9.6°
